Regional Weather Roundup
Issued by NWS

Home | Current Version | Previous Version | Text Only | Print | Product List | Glossary Off
Versions: 1 2 3 4 5 6 7 8 9 10 11 12 13 14 15 16 17 18 19 20 21 22 23 24 25 26 27 28 29 30 31 32 33 34 35 36 37 38 39 40 41 42 43 44 45 46 47 48 49 50

000
ASUS43 KOAX 130402
RWRNE

WEATHER ROUNDUP FOR NEBRASKA
NATIONAL WEATHER SERVICE OMAHA NE
1000 PM CST TUE DEC 12 2017

NOTES: SATELLITE DATA IS BEING USED TO AUGMENT CLOUD COVER ABOVE
       12000 FEET.
       "FAIR" INDICATES FEW OR NO CLOUDS BELOW 12,000 FEET WITH NO
       SIGNIFICANT WEATHER AND/OR OBSTRUCTIONS TO VISIBILITY.


NEZ001>004-019>022-054>056-130500-
NEBRASKA PANHANDLE

CITY           SKY/WX    TMP DP  RH WIND       PRES   REMARKS
SCOTTSBLUFF    CLOUDY    34  14  43 NW10      30.00S WCI  26
ALLIANCE       CLOUDY    25  14  63 W7        29.96S WCI  17
CHADRON        CLOUDY    43  18  36 NW8       29.95S
GORDON         FAIR      46  21  36 W16       29.90S
KIMBALL        CLEAR     42   9  26 W17       30.04S
SIDNEY         CLOUDY    44  11  26 W18       29.99F
$$

NEZ057>060-069>072-079>082-130500-
SOUTHWEST NEBRASKA

CITY           SKY/WX    TMP DP  RH WIND       PRES   REMARKS
NORTH PLATTE   CLOUDY    28  19  69 NW9       29.89F WCI  19
IMPERIAL       CLEAR     43  16  33 W14       29.96F
LEXINGTON      CLOUDY    33  21  62 NW3       29.88F
MCCOOK         CLEAR     36  19  50 W9        29.93F WCI  29
OGALLALA       CLEAR     38  16  41 W8        29.94F WCI  32
$$

NEZ005>010-023>029-035>040-094-130500-
NORTH CENTRAL NEBRASKA

CITY           SKY/WX    TMP DP  RH WIND       PRES   REMARKS
VALENTINE      CLOUDY    37  21  52 SW8       29.82F WCI  31
AINSWORTH      CLOUDY    42  23  47 W12       29.81F
BROKEN BOW     CLEAR     37  20  50 W5        29.84F WCI  33
O`NEILL        CLEAR     36  24  62 SW9       29.77F WCI  29
ORD            CLEAR     38  20  48 CALM      29.82F
THEDFORD       CLEAR     44  20  38 W9        29.85F
$$

NEZ041-046>049-061>064-073>077-083>087-130500-
SOUTH CENTRAL NEBRASKA

CITY           SKY/WX    TMP DP  RH WIND       PRES   REMARKS
GRAND ISLAND   CLEAR     37  21  52 SW8       29.86F WCI  31
AURORA         CLEAR     37  19  49 SW13      29.85F WCI  29
HASTINGS       CLEAR     41  19  41 SW8       29.87F
HEBRON         CLEAR     40  25  54 SW8       29.90F WCI  34
HOLDREGE       CLEAR     42  21  43 SW8       29.88F
KEARNEY        CLEAR     41  19  41 SW8       29.87F
YORK           CLEAR     36  23  60 SW9       29.85F WCI  29
$$

NEZ011>018-030>034-042>045-130500-
NORTHEAST NEBRASKA

CITY           SKY/WX    TMP DP  RH WIND       PRES   REMARKS
NORFOLK        CLEAR     41  19  41 W9        29.77F
ALBION         CLEAR     40  20  44 NW6       29.80F
BLAIR          CLEAR     36  26  68 S8        29.81F WCI  29
FREMONT        CLOUDY    39  23  52 SW10      29.81F WCI  32
TEKAMAH        CLEAR     28  20  71 S9        29.80F WCI  19
WAYNE          CLEAR     40  17  39 SW10      29.76F WCI  33
$$

NEZ050>053-065>068-078-088>093-130500-
SOUTHEAST NEBRASKA

CITY           SKY/WX    TMP DP  RH WIND       PRES   REMARKS
LINCOLN        CLEAR     35  24  64 S6        29.88F WCI  30
OMAHA EPPLEY   CLEAR     31  24  75 SE13      29.84F WCI  21
BEATRICE       CLEAR     37  26  65 S8        29.90F WCI  30
FALLS CITY     CLOUDY    30  24  78 S5        29.93F WCI  25
NEBRASKA CITY  CLOUDY    35  27  74 SW12      29.88F WCI  27
PLATTSMOUTH    CLEAR     37  27  67 SW16      29.84F WCI  27
$$

NEZ044-045-051>053-067-130500-
OMAHA AREA

CITY           SKY/WX    TMP DP  RH WIND       PRES   REMARKS
OMAHA EPPLEY   CLEAR     31  24  75 SE13      29.84F WCI  21
BLAIR          CLEAR     36  26  68 S8        29.81F WCI  29
FREMONT        CLOUDY    39  23  52 SW10      29.81F WCI  32
MILLARD        CLEAR     34  26  72 CALM      29.84F
OFFUTT AFB     CLEAR     24  20  86 E5        29.84F WCI  18
PLATTSMOUTH    CLEAR     37  27  67 SW16      29.84F WCI  27
WAHOO          FAIR      37  24  58 SW9       29.82F WCI  30
$$



USA.gov is the U.S. government's official web portal to all federal, state and local government web resources and services.